Reflectivity
2 -20 -2 26 -20 -20 -20 -20 -20 -20 -20 -20 -19 -20 -20 -20 -20 -20 -1 -9 -4 -4 -0 35 29 -19 -20 -18 10 -7 30 16 5 30 -20 -15 15 22 26 -20 -20 9 15 11
17 -11 -20 -20 -20 -20 -20 -20 -20 -20 -20 -5 -3 -13 -20 -20 -20 -20 -2 4 31 26 31 29 17 15 33 31 24 -9 10 27 28 16 22 3 8 34 24 31 16 24 15 13
-3 -15 -14 -20 -18 -20 -20 -20 -13 -20 -20 -19 10 8 -20 -20 -20 -20 -20 -18 1 14 12 30 28 31 29 18 23 28 20 21 21 10 20 20 33 31 21 28 30 14 24 34
-4 8 -2 -15 23 -20 -20 -20 -20 -20 -20 11 6 -0 9 -17 -10 -20 -20 22 9 16 -18 15 -13 12 14 26 33 21 19 23 24 18 22 31 29 18 16 15 8 18 11 9
-0 -14 -20 -20 -13 5 -20 -20 -20 -20 -15 18 3 29 -12 -7 8 -18 -19 -17 -1 22 -0 -14 -12 26 9 22 25 27 33 25 26 28 25 31 29 26 27 10 -7 -11 -11 -9
-20 -20 -20 -20 -20 11 -12 -20 -20 -20 36 12 22 -20 -16 27 -20 -20 -18 -20 -20 -18 -7 -12 31 26 25 36 21 20 16 10 27 32 27 28 31 31 33 16 1 9 6 -20
-20 -20 -20 -20 -20 -1 2 -20 -20 -20 -20 -20 0 -20 -20 -18 -18 6 -20 -12 -18 -6 14 23 13 20 22 17 23 28 29 32 26 34 25 28 34 35 34 27 -18 -20 -20 -13
-20 -20 -20 -20 -20 -10 3 -18 -20 -15 15 34 -20 -20 -20 -20 -10 -15 -20 -20 -20 -15 8 10 8 -2 -13 -0 -1 15 24 25 39 30 46 39 34 23 20 35 26 17 14 -2
-20 -20 -20 -20 -20 -4 16 -7 -20 -20 -20 -20 -20 -20 -20 -20 -20 -20 -20 -20 -20 -20 -20 -3 12 -17 21 10 22 16 -6 22 33 40 41 35 28 23 13 -1 0 -18 -5 -6
-20 -20 -20 -20 -20 -19 -17 -20 -20 -20 -20 -20 -20 -20 -20 -20 -20 -20 -20 -20 -20 -18 -2 -12 -20 -20 -18 -18 1 -7 12 23 20 32 29 21 19 3 22 16 15 -5 10 19
-20 -20 -20 -20 9 -20 -20 -20 -20 -20 -20 -20 -20 -20 -20 -20 -20 -20 -20 -20 -10 -20 -20 -20 -20 -20 -20 -20 -20 -20 -20 -20 8 15 3 9 3 17 -2 -6 -20 -15 1 -20
-20 -20 -20 -20 -17 -20 -20 -20 -20 -20 -20 -20 -6 -20 -20 -20 -20 -20 -20 -20 -20 -20 -20 -20 -20 -20 -20 -20 -20 -20 -20 -20 -20 -20 -14 -18 -16 -17 -20 -20 -16 5 -11 -20
-20 -20 -20 -20 -20 -13 -20 -20 -20 -20 -20 -20 -19 -10 -20 -20 -20 -20 -20 -20 -20 -20 -20 -20 -20 -20 -20 -20 -20 -20 -20 -20 -20 -20 -20 -20 -20 -20 -20 -20 -20 -20 -20 -20
-20 -20 -20 -20 -20 -20 -20 -20 -20 -20 -20 -20 -20 -18 -18 -20 -20 -20 -20 -20 -20 -20 -20 -20 -20 -20 -20 -20 -20 -20 -20 -20 -20 -20 -20 -20 -20 -20 -20 -20 -20 -20 -20 -20
-20 -20 -20 -20 -20 -20 -20 -20 -20 -20 -20 4 -14 26 -20 -20 -20 -20 -20 -20 -20 -20 -20 -20 -20 -20 -20 -20 -20 -20 -20 -20 -20 -20 -20 -20 -20 -20 -20 -20 -20 -20 -20 -20
-20 -20 -20 -20 -20 -20 -20 -20 -20 -20 -20 -20 -20 -20 -20 -20 -20 -20 -20 -20 -20 -20 -20 -20 -20 -20 -20 -20 -20 -20 -20 -20 -20 -20 -20 -20 -20 -20 -20 -20 -20 -20 -20 -20
-20 -20 -20 -20 -20 -20 -20 -20 -20 -20 -20 -20 -20 -20 -20 -20 -20 -20 -20 -20 -20 -20 -20 -20 -20 -20 -20 -20 -20 -20 -20 -20 -20 -20 -20 -20 -20 -20 -20 -20 -20 -20 -20 -20
-20 -20 -20 -20 -20 -20 -20 -20 -20 -20 -20 -20 -20 -20 -20 -20 -20 -20 -20 -20 -20 -20 -20 -20 -20 -20 -20 -20 -20 -20 -20 -20 -20 -20 -20 -20 -20 -20 -20 -20 -20 -20 -20 -20
-20 -20 -20 -20 -20 -20 -20 -20 -20 -20 -20 -20 -20 -20 -20 -20 -20 -20 -20 -20 -20 -20 -20 -20 -20 -20 -20 -20 -20 -20 -20 -20 -20 -20 -20 -20 -20 -20 -20 -20 -20 -20 -20 -20
-20 -20 -20 -20 -20 -20 -20 -20 -20 -20 -20 -20 -20 -20 -20 -20 -20 -20 -20 -20 -20 -20 -20 -20 -20 -20 -20 -20 -20 -20 -20 -20 -20 -20 -20 -20 -20 -20 -20 -20 -20 -20 -20 -20
-20 -20 -20 -20 -20 -20 -20 -20 -20 -20 -20 -20 -20 -20 -20 -20 -20 -20 -20 -20 -20 -20 -20 -20 -20 -20 -20 -20 -20 -20 -20 -20 -20 -20 -20 -20 -20 -20 -20 -20 -20 -20 -20 -20
-20 -20 -20 -20 -20 -20 -20 -20 -20 -20 -20 -20 -20 -20 -20 -20 -20 -20 -20 -20 -20 -20 -20 -20 -20 -20 -20 -20 -20 -20 -20 -20 -20 -20 -20 -20 -20 -20 -20 -20 -20 -20 -20 -20
-20 -20 -20 -20 -20 -20 -20 -20 -20 -20 -20 -13 -20 -20 -20 -20 -20 -20 -20 -20 -20 -20 -20 -20 -20 -20 -20 -20 -20 -20 -20 -20 -20 -20 -20 -20 -20 -20 -20 -20 -20 -20 -20 -20
-20 -20 -20 -20 -20 -20 -20 -20 -20 -20 -20 -20 -20 -20 -20 -20 -20 -20 -20 -20 -20 -20 -20 -20 -20 -20 -20 -20 -20 -20 -20 -20 -20 -20 -20 1 -20 -20 -20 -20 -20 -20 -20 -20
-20 -20 -20 -20 -20 -20 -20 -20 -20 -20 -20 -20 -20 -20 -20 -20 -20 -20 -20 -20 -20 -20 -20 -20 -20 -20 -20 -20 -20 -20 -20 -20 -20 -20 -20 -20 -20 -20 -20 -20 -20 -20 -20 -20
-20 -20 -20 -20 -20 -20 -20 -20 -20 -20 -20 -20 -20 -20 -20 -20 -20 -20 -20 -20 -20 -20 -20 -20 -20 -20 -20 -20 -20 -20 -20 -20 -20 -20 -20 -20 -20 -20 -5 -11 -20 -20 -20 -20
-20 -20 -20 -20 -20 -20 -20 -20 -20 -20 -20 -20 -20 -20 -20 -20 -20 -20 -20 -20 -20 -20 -20 -20 -20 -20 -20 -20 -20 -20 -20 -20 -6 -20 -20 -20 -20 -20 -17 10 -1 -17 -20 -20
Wind_Speed
5 3 7 8 4 7 1 3 4 5 4 5 7 5 4 3 6 10 11 12 10 9 9 10 11 8 7 5 4 5 8 10 10 7 6 5 4 3 3 3 4 3 3 4
1 3 4 1 8 3 4 4 1 4 2 4 5 5 8 6 5 6 7 9 7 6 9 9 7 7 5 6 7 5 4 7 6 5 5 4 3 5 5 5 5 4 3 2
5 6 5 4 0 3 1 4 3 2 4 5 6 10 7 5 6 7 6 6 7 3 5 7 8 9 9 6 5 6 6 5 6 7 7 5 5 6 7 7 5 4 3 3
2 0 5 4 1 5 2 3 4 4 2 6 10 10 11 9 8 9 7 6 5 5 5 5 2 5 8 8 7 5 6 7 8 8 7 6 6 7 6 5 5 3 3 3
3 3 3 4 6 5 5 6 3 5 5 9 12 11 12 9 9 9 8 6 6 6 4 3 4 3 6 5 5 6 6 6 6 7 8 8 9 8 5 5 5 4 3 4
3 2 4 4 2 4 6 6 4 5 10 11 2 8 2 5 8 9 8 7 6 7 4 6 5 3 5 6 6 5 4 2 4 5 4 6 5 4 1 6 6 5 5 4
2 2 6 5 1 3 4 8 5 9 4 5 6 4 9 7 9 6 6 9 8 7 6 6 5 5 6 9 7 4 5 6 5 5 7 7 5 3 5 6 7 6 6 4
2 1 3 1 1 5 5 2 4 2 1 2 8 11 8 8 6 5 6 9 8 8 7 5 5 7 8 10 6 6 7 10 9 9 5 4 4 3 5 7 6 5 5 3
8 7 5 4 5 3 4 4 3 5 6 3 12 10 6 6 5 4 5 3 6 8 8 6 7 7 9 5 6 7 9 10 8 8 5 6 5 3 5 5 5 4 3 2
2 3 3 4 4 3 4 3 4 4 6 5 6 7 5 5 7 4 3 4 5 6 8 8 7 8 6 4 5 8 8 8 6 4 4 5 5 4 3 3 3 4 4 3
1 3 4 3 3 3 4 7 6 7 5 5 6 6 5 5 6 4 4 5 7 4 5 5 5 6 4 4 5 7 7 6 6 5 5 5 5 4 3 4 3 2 2 1
7 9 6 5 3 0 5 6 8 8 7 6 4 6 7 6 4 3 5 4 5 4 5 4 5 5 4 3 5 6 5 4 3 3 3 3 3 2 7 6 4 7 4 1
4 7 5 6 6 1 4 7 6 8 6 8 5 6 5 4 4 5 5 4 4 4 4 5 5 5 3 4 4 5 5 4 3 3 2 2 2 2 2 0 2 2 4 4
3 8 6 5 7 6 3 6 4 5 6 6 5 5 5 5 5 6 6 5 5 4 4 4 4 3 1 2 3 4 3 4 2 2 1 2 2 2 1 1 1 2 1 1
9 4 7 9 8 7 3 6 8 7 6 7 6 8 8 7 6 3 3 5 6 6 5 5 4 2 3 4 3 3 2 1 2 1 2 2 2 2 2 2 3 3 1 2
5 4 9 11 10 8 7 5 9 6 5 6 8 7 7 9 8 6 5 4 5 5 5 6 5 2 2 3 3 2 3 5 4 3 3 3 3 3 3 4 4 5 5 4
8 5 5 7 12 9 11 8 9 8 6 9 9 10 12 11 9 9 7 7 8 7 5 6 4 5 6 5 4 2 1 2 4 3 3 3 3 3 3 3 5 5 6 4
10 12 14 16 13 9 7 6 9 11 11 12 10 10 9 10 10 7 6 5 6 7 6 5 5 6 6 6 5 3 3 3 3 3 3 3 4 3 4 4 5 6 7 4
7 10 9 10 14 11 12 10 9 8 10 10 10 8 7 7 7 6 5 6 6 6 4 5 9 7 5 7 6 3 4 5 4 4 4 4 4 5 4 5 6 7 6 5
5 5 7 8 8 11 10 7 10 11 9 10 11 10 9 6 6 6 4 5 2 1 2 4 4 4 4 6 7 3 4 5 5 5 4 4 4 5 5 7 7 6 5 5
9 8 9 11 10 9 10 14 14 12 10 10 12 10 10 6 6 7 6 4 2 2 2 4 3 3 3 6 4 3 4 4 5 5 5 5 5 6 5 6 6 6 7 6
6 9 10 11 12 10 8 9 11 11 11 9 7 9 9 7 6 4 2 3 2 3 1 0 1 5 4 6 3 3 4 4 4 4 4 5 5 6 6 6 6 7 8 7
9 10 11 12 13 12 10 10 11 13 13 11 11 10 9 7 6 5 3 4 2 3 2 1 3 5 7 4 4 4 4 5 4 4 4 5 5 4 5 6 6 6 5 5
7 8 8 9 13 13 12 6 10 9 9 8 8 9 9 5 2 1 1 7 5 5 3 2 2 5 5 2 3 4 4 4 3 3 3 3 3 4 5 6 5 4 4 4
10 10 10 13 13 10 11 10 8 7 7 6 5 6 7 4 5 5 4 5 7 5 3 5 5 4 2 2 2 3 3 3 3 3 4 5 6 6 5 5 5 5 4 3
11 9 10 14 12 9 9 9 9 7 6 6 4 5 5 4 3 4 5 6 5 6 4 3 3 3 2 2 1 1 1 2 3 3 5 5 6 6 5 4 5 5 4 3
6 7 7 5 4 7 9 10 9 9 7 8 8 7 6 5 5 5 5 5 6 5 5 4 4 4 3 3 3 2 2 3 2 2 3 4 5 5 4 3 3 3 4 4
Wind_Direction
175 270 85 254 352 356 71 100 177 283 314 323 315 324 323 142 129 137 153 158 165 163 161 171 175 167 151 160 172 193 190 176 175 173 152 154 149 246 256 229 235 236 245 224
63 96 268 343 30 344 15 20 2 314 6 321 358 57 56 70 111 145 163 192 179 161 170 171 181 153 149 173 163 170 182 176 162 145 153 205 177 191 214 225 236 216 200 158
169 299 36 336 280 56 226 359 309 335 238 289 47 63 51 74 107 113 80 77 79 88 125 163 165 167 176 173 152 180 178 160 148 158 169 191 206 190 212 197 196 203 179 145
259 49 183 281 173 152 228 252 311 260 214 105 100 82 62 51 77 82 82 85 74 77 88 65 81 116 136 151 164 168 167 169 169 177 173 178 196 197 196 179 169 152 155 119
197 180 272 163 212 155 147 277 185 242 154 143 117 93 63 61 61 68 65 49 58 70 68 89 84 137 149 145 161 164 191 180 186 185 177 186 197 189 179 148 131 142 134 99
127 94 215 247 181 94 91 294 179 212 179 168 269 96 134 115 102 91 88 71 58 43 45 58 33 264 171 155 165 167 125 196 205 198 152 131 139 142 234 123 116 121 103 85
128 197 281 251 212 86 113 243 152 205 202 169 164 176 150 141 106 103 103 96 84 65 44 15 33 62 78 89 70 87 107 84 58 53 117 134 141 160 141 112 119 121 111 86
102 133 283 143 117 172 219 354 145 175 290 85 93 103 86 70 81 100 96 99 94 89 66 26 33 78 76 67 57 68 81 90 81 65 333 88 114 91 128 137 132 127 120 109
168 217 249 264 224 266 198 144 175 126 68 79 114 108 107 115 115 103 80 78 97 92 80 50 48 59 75 48 65 66 72 67 76 72 40 31 58 86 108 124 133 129 138 140
84 295 285 322 293 211 145 127 142 111 112 107 113 106 131 123 110 92 88 117 78 92 90 79 58 67 69 71 81 82 84 87 93 84 61 46 24 38 51 91 126 143 147 172
349 298 327 309 297 329 85 98 92 112 123 125 128 127 133 119 105 149 132 70 75 87 91 107 112 93 79 75 76 76 78 81 82 83 79 76 60 12 51 38 358 119 124 192
209 202 164 204 189 65 136 128 142 138 142 134 154 144 133 114 109 93 99 89 94 75 102 104 80 81 84 68 94 104 90 78 78 84 79 91 108 97 59 77 58 53 53 34
219 161 181 154 135 85 130 132 166 163 153 154 147 131 111 116 123 115 99 89 84 107 105 104 94 89 77 72 61 58 88 100 100 100 124 125 97 87 43 61 111 113 63 61
171 117 67 148 175 179 162 112 92 83 98 114 118 103 108 102 110 140 156 156 137 119 92 80 81 56 39 90 62 59 48 29 22 7 201 182 185 187 188 226 295 298 193 212
186 266 164 120 116 126 149 114 92 92 104 99 106 127 130 140 128 109 83 116 122 125 117 116 109 103 166 161 171 185 202 229 222 249 249 236 241 272 255 248 255 258 301 255
142 109 129 130 145 141 130 118 116 120 117 113 113 110 108 99 91 76 59 77 92 72 77 95 82 45 111 177 206 218 221 227 215 214 217 217 225 232 239 241 238 234 245 245
116 114 99 122 155 161 175 166 150 142 127 123 124 122 113 108 96 88 81 83 93 88 74 70 56 25 29 26 28 21 300 228 229 222 235 238 237 236 243 246 250 244 246 219
175 168 173 165 165 155 147 157 147 148 149 140 132 131 132 124 123 117 107 99 84 67 49 35 34 29 23 17 19 10 349 329 315 275 272 256 256 257 260 255 255 259 266 247
180 166 161 160 164 163 156 153 149 125 128 130 125 116 108 110 112 112 117 92 76 74 12 8 19 23 7 353 5 356 347 334 317 296 283 278 277 272 268 258 258 253 252 250
142 133 143 140 134 148 141 131 129 134 139 125 122 120 114 113 116 109 84 81 76 93 334 347 16 3 343 336 348 5 345 332 320 302 294 282 279 280 273 258 259 257 252 246
170 153 149 151 148 140 154 147 145 146 140 140 136 142 139 145 135 128 110 109 272 290 333 355 4 347 330 331 349 342 335 330 327 321 315 308 303 297 292 290 283 269 262 249
139 147 149 146 144 134 137 142 134 130 133 126 124 133 136 142 141 137 128 153 193 202 148 85 344 331 344 9 356 343 334 329 324 326 322 318 311 307 306 306 296 287 274 257
148 153 147 149 153 147 129 133 139 142 145 151 154 157 160 164 162 138 158 212 185 179 97 20 319 4 23 16 2 353 346 341 335 335 338 331 317 313 310 306 302 301 297 262
128 139 137 119 125 131 136 146 143 148 154 157 164 161 149 148 195 241 95 160 181 170 159 173 101 73 56 29 21 13 9 3 353 349 348 308 305 307 307 305 290 296 305 274
142 134 135 141 150 160 145 143 126 127 133 145 164 174 171 175 158 182 173 187 190 168 188 219 171 132 85 41 24 14 358 348 344 356 333 316 318 316 313 313 306 297 288 246
145 156 161 165 162 150 146 152 158 158 149 160 180 186 185 180 175 151 169 188 190 188 204 215 213 198 204 219 259 302 311 313 357 343 320 321 325 320 311 319 316 316 307 300
104 115 118 98 107 145 155 163 154 172 175 174 180 192 193 187 193 189 178 190 203 201 210 216 215 221 216 224 243 267 279 285 281 288 298 318 325 324 318 313 320 322 321 313